This is the latest recevied weather packets stored in our database for station/object 9W2GDL-10. If no packets are shown the sender has not sent any weather packets the latest 10 day(s).
| Time | Temp. | Humidity | Pressure | Rain* | Wind** | Luminosity | Snow |
|---|---|---|---|---|---|---|---|
| 1787834700 | 30.56° C | 47% | 1011 hPa | - | - | - | - |
| 1787834100 | 30.56° C | 48% | 1010.8 hPa | - | - | - | - |
| 1787833499 | 30.56° C | 50% | 1010.8 hPa | - | - | - | - |
| 1787832898 | 30.56° C | 50% | 1010.6 hPa | - | - | - | - |
| 1787832297 | 31.11° C | 49% | 1010.5 hPa | - | - | - | - |
| 1787831696 | 31.11° C | 50% | 1010.3 hPa | - | - | - | - |
| 1787831096 | 31.11° C | 52% | 1010.3 hPa | - | - | - | - |
| 1787830495 | 31.11° C | 51% | 1009.9 hPa | - | - | - | - |
| 1787829894 | 31.11° C | 52% | 1009.8 hPa | - | - | - | - |
| 1787829293 | 31.11° C | 52% | 1009.7 hPa | - | - | - | - |
| 1787828692 | 31.67° C | 51% | 1009.5 hPa | - | - | - | - |
| 1787828092 | 31.67° C | 51% | 1009.5 hPa | - | - | - | - |
| 1787827491 | 31.67° C | 52% | 1009.4 hPa | - | - | - | - |
| 1787826890 | 31.67° C | 52% | 1009.4 hPa | - | - | - | - |
| 1787826289 | 32.22° C | 52% | 1009.5 hPa | - | - | - | - |
| 1787825688 | 31.67° C | 53% | 1009.3 hPa | - | - | - | - |
| 1787825088 | 32.22° C | 52% | 1009.3 hPa | - | - | - | - |
| 1787824486 | 32.22° C | 53% | 1009.3 hPa | - | - | - | - |
| 1787823885 | 32.22° C | 52% | 1009.3 hPa | - | - | - | - |
| 1787823284 | 32.22° C | 53% | 1009.2 hPa | - | - | - | - |
| 1787822683 | 31.67° C | 49% | 1009 hPa | - | - | - | - |
| 1787822083 | 31.67° C | 49% | 1009.1 hPa | - | - | - | - |
| 1787821482 | 31.67° C | 50% | 1009.4 hPa | - | - | - | - |
| 1787820881 | 32.22° C | 50% | 1009.2 hPa | - | - | - | - |
| 1787820280 | 32.22° C | 53% | 1009.4 hPa | - | - | - | - |
* Rain since midnight (hover to see other rain measurements)
** Current wind speed in m/s (hover to see current wind gust speed)